Tracking 28096 objects as of 27-Sep-2023
HD Live streaming from Space Station
objects crossing your sky now

STARLINK-3340

Track STARLINK-3340 now!
10-day predictions
STARLINK-3340 is classified as:


NORAD ID: 50824
Int'l Code: 2022-001X
Perigee: 546.0 km
Apogee: 547.8 km
Inclination: 53.2 °
Period: 95.4 minutes
Semi major axis: 6917 km
RCS: Unknown
Launch date: January 6, 2022
Source: United States (US)
Launch site: AIR FORCE EASTERN TEST RANGE (AFETR)
Your satellite tracking list
Your tracking list is empty




NASA's NSSDC Master Catalog

Two Line Element Set (TLE):
1 50824U 22001X   23270.16735522 -.00001192  00000-0 -56829-4 0  9998
2 50824  53.2151 224.7899 0001276 102.6382 257.4753 15.08840231 96636
Source of the keplerian elements: AFSPC